Wind_Speed
11 11 10 10 11 11 11 10 9 9 9 9 9 8 8 8 8 9 10 10 9 9 9 9 8 8 8 8 8 7 7 7 7 7 7 7 7 7 8 9 10 10 10 10
12 12 12 12 12 12 12 12 11 11 10 11 10 9 9 9 9 9 10 10 10 10 10 9 9 10 9 9 9 8 8 8 9 8 8 8 8 8 9 10 10 11 11 11
12 12 13 13 13 13 13 13 11 11 11 11 10 10 9 10 10 10 10 11 10 11 11 11 11 10 10 10 10 9 9 9 9 9 9 9 9 9 10 10 11 11 11 11
13 13 13 13 13 13 12 12 12 11 11 11 11 10 10 10 10 10 10 10 11 11 11 12 12 12 11 11 11 11 10 10 10 10 10 10 11 10 10 10 11 11 12 12
12 13 14 14 14 13 13 13 14 13 13 12 12 12 10 10 10 10 10 10 11 12 12 13 13 12 12 12 12 12 11 11 11 11 12 12 12 12 12 12 12 12 12 13
13 13 14 14 14 14 14 14 14 14 14 14 13 13 12 11 11 11 11 10 11 12 13 14 14 13 13 14 14 13 13 13 13 13 13 13 13 13 13 13 13 13 14 14
14 14 14 15 15 15 15 15 15 15 15 14 14 15 13 12 12 12 12 11 11 12 13 14 14 15 14 14 14 15 15 15 14 14 15 15 15 15 14 15 15 15 15 15
16 15 14 15 15 15 16 16 16 17 17 16 15 15 14 13 13 13 13 13 13 13 13 15 16 16 16 16 15 15 15 16 16 16 16 16 16 16 16 16 16 16 16 16
16 15 14 15 15 15 16 16 16 17 18 18 17 16 14 14 14 14 14 14 14 14 15 15 16 17 17 18 17 16 16 16 17 18 18 18 18 17 17 17 17 16 16 16
17 16 15 16 16 16 16 16 17 18 18 18 17 17 14 13 15 16 16 15 16 16 16 17 17 18 18 18 18 18 17 18 17 17 17 18 18 18 18 17 17 16 16 16
18 17 16 17 17 17 17 17 18 19 20 19 18 17 14 15 15 16 16 17 17 18 18 18 18 18 19 19 18 19 18 18 18 19 18 19 18 18 18 17 17 17 17 18
19 18 18 18 18 18 18 18 19 20 20 20 21 18 16 16 16 16 16 17 18 18 18 19 19 19 19 19 19 20 20 20 19 20 20 20 19 19 19 17 17 18 18 18
20 20 20 19 20 19 19 19 20 21 22 22 22 20 19 18 18 17 16 16 17 18 18 18 18 17 18 19 20 20 21 21 20 20 21 21 20 19 19 18 18 18 18 19
21 21 21 21 21 21 21 20 21 22 22 23 22 21 20 20 19 19 17 16 17 18 18 19 18 19 18 18 20 20 21 22 22 22 21 21 20 20 19 19 19 19 19 20
23 23 23 23 23 23 23 22 22 23 22 23 21 21 20 21 20 19 18 17 18 19 19 19 20 20 20 20 20 20 21 21 23 23 22 21 21 21 21 20 20 21 21 21
25 25 25 25 24 25 25 24 23 23 22 23 22 21 22 23 21 20 20 19 20 20 21 21 21 22 22 22 21 21 22 22 23 23 23 22 22 22 22 22 21 22 22 22
25 25 26 25 25 26 26 25 25 25 24 24 24 23 23 24 23 22 22 21 21 21 22 22 23 23 23 22 23 23 22 23 24 24 25 24 24 23 23 23 22 22 23 23
25 26 27 26 26 27 25 24 25 25 25 25 25 25 26 26 25 24 24 24 23 23 23 23 24 24 24 24 24 24 23 24 24 25 26 26 25 25 25 25 24 24 23 24
26 26 26 27 27 27 25 25 25 25 25 25 25 25 26 26 26 25 25 25 25 25 24 24 24 25 26 26 26 26 25 25 26 26 27 27 27 27 27 27 26 26 25 25
27 27 27 27 27 27 24 25 25 25 25 25 25 25 26 27 27 26 26 27 27 26 25 25 25 25 26 27 26 26 26 26 26 27 27 27 28 28 28 28 28 27 26 26
28 28 28 28 28 27 25 25 26 27 26 27 27 27 26 27 28 28 28 28 28 27 26 26 26 26 27 28 28 27 27 27 27 27 28 28 29 29 30 30 29 29 28 28
29 29 28 28 29 27 26 26 27 27 28 29 29 28 28 29 30 30 30 29 29 28 28 28 28 28 28 29 28 28 27 28 28 28 28 28 29 30 30 31 30 30 30 29
30 30 30 30 30 28 28 28 28 29 29 29 30 30 30 30 31 31 32 31 31 30 30 30 30 30 30 30 29 29 28 29 29 28 28 28 29 29 30 30 30 30 30 30
30 30 31 31 31 30 30 30 31 31 30 31 30 30 31 32 31 32 32 32 32 32 32 31 30 30 30 30 29 30 30 30 30 29 29 29 30 30 30 30 30 30 30 30
29 30 30 31 31 32 32 32 32 31 31 31 32 32 33 33 33 33 34 33 33 33 32 32 31 31 31 31 30 31 31 31 31 30 30 30 31 30 30 31 31 32 31 30
29 31 31 31 32 33 32 33 33 33 33 33 33 34 34 34 33 34 35 35 35 34 34 34 33 33 32 32 32 32 32 32 32 32 31 32 32 31 31 31 31 31 31 31
Wind_Direction
256 256 257 254 254 256 257 258 258 258 259 258 259 259 263 262 257 251 249 247 244 246 250 252 256 261 262 262 262 261 265 271 272 272 278 285 289 290 289 289 287 285 286 286
255 255 255 253 253 254 257 258 258 262 262 263 264 264 263 263 260 253 249 246 242 247 252 253 255 258 260 261 261 261 262 268 272 272 274 280 285 291 292 292 288 286 286 286
256 253 252 254 253 255 258 258 257 260 260 262 265 268 266 266 264 261 256 249 246 246 248 251 254 256 262 261 262 264 265 268 271 272 273 276 281 287 292 293 290 289 291 291
257 254 254 255 254 257 258 259 257 253 253 257 264 271 268 267 265 267 264 253 248 248 249 251 252 254 257 261 264 263 263 263 268 271 272 274 279 284 290 294 294 295 293 292
260 258 256 256 255 254 256 258 256 253 251 256 261 267 265 263 260 260 260 257 251 252 253 255 255 254 256 260 262 260 259 259 262 267 270 272 276 282 287 290 292 293 293 292
261 260 258 257 257 256 255 253 253 251 252 256 259 262 261 258 260 259 257 259 258 256 255 254 255 255 257 259 260 260 260 261 263 265 269 273 278 281 284 286 288 291 292 290
262 261 259 257 256 253 252 251 250 252 252 255 257 257 256 254 257 259 259 260 262 261 258 256 257 257 257 259 259 260 263 265 266 268 270 273 276 279 282 283 283 286 288 288
263 263 260 257 256 254 253 254 254 254 256 256 253 257 259 260 262 262 263 263 264 264 264 261 260 260 257 258 260 262 265 267 269 272 273 273 274 277 281 281 281 284 285 286
264 263 258 255 255 255 253 254 255 256 257 258 256 258 262 263 262 263 265 265 264 264 265 263 260 260 260 261 262 264 266 268 271 274 274 272 272 275 278 279 280 283 283 284
262 261 257 256 255 254 252 252 253 255 257 259 260 257 259 259 259 263 266 266 263 264 265 264 261 260 259 259 261 264 267 269 273 276 276 276 274 276 276 277 278 280 282 283
262 262 257 255 255 257 255 251 253 256 255 257 260 258 262 263 262 264 265 266 266 266 266 267 265 261 257 257 258 262 266 269 270 273 273 274 274 276 275 275 277 279 281 282
260 261 257 254 254 255 254 252 252 255 258 258 259 257 260 262 261 263 267 268 267 268 268 268 267 266 262 260 260 261 263 266 269 271 271 271 273 273 273 273 275 278 279 280
258 259 259 256 255 256 253 253 255 256 257 259 260 258 260 262 262 263 266 268 268 267 268 269 268 268 268 264 262 262 264 265 268 269 268 268 271 274 272 271 273 275 278 279
256 257 258 259 260 258 256 256 256 256 257 259 260 260 258 263 265 264 265 267 267 265 267 270 270 272 273 270 265 264 264 266 267 270 268 266 268 270 271 270 270 273 277 278
255 257 258 259 260 259 257 257 256 257 258 259 260 259 260 262 265 264 265 267 267 265 265 267 270 272 274 272 268 266 265 267 268 267 267 265 267 268 270 271 269 272 274 276
255 257 259 258 259 260 259 259 257 257 258 258 258 258 260 262 264 264 265 266 267 264 263 265 269 271 273 272 269 267 266 266 267 266 265 264 266 267 269 270 270 271 273 274
256 258 259 259 257 260 260 261 260 260 259 257 256 256 257 260 264 264 264 265 265 264 264 265 267 268 268 269 269 266 267 266 266 267 266 265 265 266 267 268 270 273 274 275
257 258 259 260 258 258 261 262 261 259 258 260 261 259 258 260 263 265 264 265 267 267 265 266 267 266 268 270 269 269 270 269 268 266 267 267 267 267 267 269 271 273 274 274
260 260 260 260 259 260 259 260 260 259 257 256 258 260 260 262 263 266 266 266 268 268 266 268 269 268 269 270 269 269 269 270 269 268 267 268 268 268 268 270 270 272 274 274
259 260 260 261 260 261 260 260 260 259 257 258 259 260 261 261 262 264 266 266 265 266 266 267 268 268 269 269 268 268 269 269 270 270 269 269 268 268 268 268 269 270 272 273
256 258 259 260 261 262 262 263 262 262 262 262 263 263 263 262 261 261 263 263 263 264 266 267 268 269 269 268 268 269 269 269 269 270 269 270 269 269 268 267 268 269 270 272
255 257 258 258 260 262 264 264 263 263 262 263 263 263 263 263 263 263 263 261 261 262 265 266 267 268 268 268 268 268 269 269 269 269 270 271 271 270 268 267 268 269 271 273
255 257 258 258 259 260 261 262 262 261 262 264 264 264 263 262 262 263 263 262 262 263 264 265 266 266 268 269 268 267 268 269 269 271 272 272 272 269 268 267 267 268 270 272
257 258 258 258 259 260 260 261 262 264 264 264 264 265 265 264 263 264 264 264 264 265 264 265 265 265 266 268 268 267 267 268 270 272 273 274 273 271 269 268 269 269 271 273
259 259 259 260 261 261 261 262 263 262 263 264 264 264 265 265 266 266 265 265 265 264 264 264 265 265 265 267 267 267 267 268 269 271 272 273 272 272 270 269 270 270 271 273
260 260 260 260 260 262 262 263 263 264 264 264 264 264 265 264 266 266 266 265 265 264 264 264 264 265 265 265 267 268 268 269 270 271 272 272 271 271 271 270 270 270 271 272
Height
5843 5844 5843 5844 5844 5844 5843 5843 5843 5843 5843 5843 5842 5842 5843 5842 5842 5842 5843 5843 5844 5845 5846 5847 5847 5848 5848 5848 5848 5848 5848 5848 5848 5848 5848 5848 5848 5847 5847 5846 5845 5845 5844 5844
5840 5840 5840 5840 5840 5840 5840 5840 5840 5840 5840 5839 5839 5839 5839 5839 5839 5839 5839 5840 5841 5842 5843 5844 5844 5845 5846 5846 5846 5846 5846 5846 5846 5846 5846 5845 5845 5845 5845 5844 5843 5842 5841 5841
5836 5837 5836 5836 5837 5836 5836 5836 5837 5837 5836 5836 5836 5836 5837 5836 5836 5836 5836 5837 5838 5839 5840 5840 5841 5842 5843 5843 5843 5843 5843 5843 5843 5843 5843 5843 5843 5842 5842 5841 5840 5839 5838 5837
5832 5832 5832 5832 5832 5832 5832 5833 5833 5833 5833 5833 5834 5833 5834 5833 5833 5833 5833 5834 5834 5835 5836 5837 5838 5838 5839 5839 5839 5840 5840 5840 5840 5840 5840 5840 5840 5840 5839 5838 5837 5836 5835 5834
5828 5828 5828 5828 5829 5828 5829 5829 5829 5829 5829 5830 5830 5830 5831 5830 5830 5830 5830 5830 5831 5832 5833 5833 5834 5835 5835 5836 5836 5836 5836 5837 5837 5837 5837 5837 5837 5836 5836 5835 5834 5833 5832 5831
5824 5824 5823 5824 5824 5824 5824 5825 5824 5824 5825 5826 5826 5826 5826 5826 5827 5827 5827 5827 5827 5828 5829 5829 5830 5831 5831 5832 5832 5832 5833 5833 5834 5834 5833 5833 5833 5832 5832 5831 5830 5829 5828 5827
5819 5819 5819 5819 5819 5820 5820 5821 5821 5820 5820 5821 5821 5821 5822 5822 5823 5823 5823 5823 5824 5824 5825 5825 5826 5826 5827 5827 5828 5829 5829 5829 5829 5829 5829 5829 5829 5828 5828 5827 5826 5825 5824 5823
5814 5815 5815 5814 5814 5815 5815 5816 5817 5816 5816 5816 5816 5816 5818 5818 5818 5818 5819 5819 5819 5820 5820 5821 5822 5822 5823 5823 5824 5824 5825 5825 5825 5825 5825 5825 5824 5824 5823 5823 5822 5821 5820 5819
5808 5809 5809 5809 5809 5810 5810 5811 5812 5811 5811 5811 5811 5812 5813 5813 5813 5814 5814 5815 5815 5816 5816 5816 5817 5818 5818 5819 5819 5819 5820 5820 5821 5820 5820 5820 5819 5819 5818 5818 5817 5816 5815 5814
5803 5804 5805 5805 5805 5805 5806 5806 5806 5806 5806 5806 5806 5808 5809 5809 5809 5809 5810 5810 5811 5811 5811 5811 5812 5812 5813 5814 5814 5814 5815 5815 5815 5815 5815 5814 5814 5813 5813 5812 5812 5811 5810 5810
5798 5799 5800 5800 5800 5801 5801 5802 5801 5801 5801 5801 5801 5805 5805 5805 5805 5805 5805 5805 5806 5806 5806 5806 5807 5807 5808 5808 5809 5809 5810 5810 5810 5810 5809 5809 5809 5808 5808 5807 5807 5806 5806 5805
5793 5794 5794 5795 5796 5796 5796 5796 5796 5797 5797 5797 5797 5802 5800 5800 5800 5800 5800 5800 5800 5800 5801 5801 5801 5802 5802 5803 5803 5804 5804 5804 5804 5804 5804 5804 5803 5803 5802 5802 5802 5801 5800 5800
5787 5788 5789 5790 5792 5791 5791 5791 5791 5791 5791 5791 5792 5797 5795 5794 5794 5795 5795 5795 5795 5795 5796 5795 5796 5796 5796 5797 5797 5798 5798 5799 5799 5798 5798 5798 5798 5797 5797 5796 5796 5796 5795 5794
5782 5782 5784 5784 5784 5785 5785 5786 5785 5785 5785 5786 5787 5789 5789 5789 5789 5789 5790 5790 5790 5790 5790 5790 5790 5790 5791 5791 5791 5792 5792 5792 5792 5792 5792 5791 5792 5792 5791 5791 5791 5790 5790 5789
5775 5776 5776 5777 5778 5778 5779 5780 5780 5780 5780 5780 5781 5782 5783 5783 5783 5783 5784 5784 5785 5785 5785 5785 5785 5785 5785 5785 5785 5785 5786 5786 5785 5785 5786 5785 5786 5786 5785 5785 5785 5784 5784 5783
5768 5769 5769 5770 5771 5770 5771 5773 5773 5774 5774 5774 5775 5776 5777 5776 5776 5777 5778 5778 5779 5779 5779 5779 5779 5779 5779 5779 5779 5779 5779 5779 5779 5779 5779 5779 5779 5779 5779 5778 5778 5778 5777 5777
5762 5762 5762 5763 5764 5763 5764 5766 5766 5767 5768 5768 5768 5770 5770 5770 5771 5771 5771 5772 5772 5772 5772 5772 5773 5773 5773 5772 5772 5772 5772 5772 5772 5772 5773 5773 5773 5772 5772 5772 5771 5771 5770 5770
5755 5755 5755 5755 5756 5756 5761 5759 5759 5759 5760 5761 5761 5762 5763 5764 5764 5764 5764 5765 5765 5765 5765 5766 5766 5766 5766 5766 5765 5765 5765 5765 5765 5765 5765 5765 5765 5765 5765 5764 5764 5764 5763 5762
5747 5748 5747 5748 5748 5749 5751 5752 5752 5752 5753 5753 5754 5754 5755 5756 5756 5757 5757 5757 5757 5757 5758 5758 5758 5758 5758 5758 5758 5758 5758 5757 5757 5757 5757 5757 5757 5757 5756 5756 5756 5756 5755 5755
5739 5739 5740 5740 5740 5741 5745 5744 5744 5745 5745 5746 5746 5747 5747 5748 5749 5750 5749 5749 5749 5750 5750 5750 5750 5750 5750 5750 5750 5750 5750 5749 5749 5749 5748 5748 5748 5748 5748 5748 5748 5747 5747 5746
5731 5731 5731 5732 5731 5733 5736 5736 5736 5738 5739 5738 5738 5739 5739 5739 5740 5741 5741 5741 5741 5741 5742 5742 5742 5741 5742 5742 5742 5742 5741 5741 5741 5741 5740 5739 5739 5739 5739 5739 5738 5738 5738 5738
5723 5723 5723 5723 5724 5727 5727 5727 5728 5728 5728 5728 5729 5729 5730 5730 5731 5732 5732 5732 5733 5733 5733 5733 5733 5733 5733 5733 5733 5733 5733 5733 5733 5732 5731 5731 5730 5730 5729 5729 5729 5729 5729 5728
5714 5715 5715 5716 5718 5718 5718 5718 5718 5718 5719 5719 5720 5720 5721 5721 5721 5722 5723 5723 5724 5724 5724 5724 5724 5724 5724 5724 5724 5724 5724 5724 5724 5723 5723 5722 5721 5720 5720 5720 5720 5720 5720 5719
5705 5705 5705 5706 5707 5708 5709 5708 5709 5709 5710 5710 5710 5710 5711 5711 5712 5712 5712 5713 5714 5714 5714 5714 5714 5715 5715 5714 5714 5715 5715 5715 5714 5714 5713 5713 5712 5711 5711 5711 5711 5711 5710 5710
5696 5696 5696 5697 5698 5698 5699 5699 5699 5699 5700 5700 5700 5700 5700 5701 5701 5702 5702 5702 5703 5704 5704 5705 5705 5705 5705 5705 5705 5705 5705 5705 5705 5705 5704 5703 5703 5702 5702 5701 5702 5701 5701 5700
5687 5687 5687 5687 5688 5688 5689 5689 5688 5688 5689 5689 5690 5690 5690 5690 5691 5691 5691 5692 5692 5693 5694 5694 5694 5695 5695 5695 5695 5695 5695 5695 5695 5695 5694 5694 5693 5692 5692 5692 5692 5691 5691 5691